Location: Auttagershofen
(48.1940°N, 10.0237°E)
Time: 23:34:55
(UTC+00:00)

Okean 1-7 - Visible Passes

Search period start: 18 April 2026 00:00
Search period end: 28 April 2026 00:00
Orbit: 564 x 588 km, 82.5° (Epoch: 18 April)

Date Brightness Start Highest point End Pass type
(mag) Time Alt. Az. Time Alt. Az. Time Alt. Az.
18 Apr 5.9 18:50:28 10° NW 18:53:16 18° W 18:56:04 10° SW visible
19 Apr 6.1 18:54:50 10° NW 18:56:58 14° W 18:59:05 10° WSW visible
20 Apr 6.6 18:59:50 10° WNW 19:00:38 10° W 19:01:27 10° W visible
